Capitol Logistics 405


KBNA
Nashville International Airport
Nashville, Tennessee, US
KMIA
Miami International Airport
Miami, Florida, US

Activity Log

Date Flight Route Aircraft Duration
11/27/2019 CPX405 TIPPN3 BRXTN OTK SSCOT4 B738 2h 06m
06/14/2019 CPX405 TIPPN3 BRXTN BULZI NICKI Q81 ENDEW JUULI SSCOT5 B752 2h 18m
03/30/2019 CPX405 TIPPN3 BRXTN BULZI NICKI Q81 ENDEW JUULI SSCOT5 B752 1h 58m
03/30/2019 CPX405 TIPPN3 BRXTN BULZI NICKI Q81 ENDEW JUULI SSCOT5 B752 2h 16m

Route Details

Aircraft Information
Primary: Boeing 757-200SF
Backup: Boeing 737-800BCF
Route Data
Distance: 702nm
Sched. Duration: 1h 58m
Avg. Duration: 1h 99m (+42m)
Times Flown: 4
Recm'd Route: TIPPN3 BRXTN BULZI NICKI Q81 ENDEW JUULI SSCOT5
Planned Altitude: 37,000ft
Origin Wx: KBNA 311311Z 04010G19KT 3SM -RA BR SCT010 BKN046 OVC055 08/06 A2991 RMK AO2 P0003 T00830056
Dest. Wx: KMIA 311253Z 21006KT 10SM FEW025 FEW045 BKN250 26/21 A2997 RMK AO2 SLP149 T02560211
Notes:

Financial History
Total Freight: 191,330lbs
Average Load: 47,833lbs/flt
Fuel Used: 57,694lbs
Avg. Fuel Used: 14,424lbs/flt
Fuel Expense: $49,617
Avg. Fuel Expense: $12,404
Avg. Fuel Cost: $0.86/lbs
Total Gross Income: $257,026
Pilot Pay: $436
Total Expenses: $27,967
Total Revenue: $177,967
Average Revenue: $64,256.45